Location: Albuquerque Trailhead
(34.7934°N, 106.3736°W)
Time: 13:17:56
(UTC+00:00)

Okean 1 Rocket - Pass Details

Date: 20 June 2021
Orbit: 607 x 633 km, 82.5° (Epoch: 31 July)

Event Time Altitude Azimuth Distance (km) Brightness Sun altitude
Rises 03:48:04 0° 346° (NNW) 2,884 7.5 -15.1°
Reaches altitude 10° 03:50:20 10° 341° (NNW) 1,979 6.6 -15.4°
Maximum altitude 03:54:34 49° 267° (W) 803 3.9 -16.0°
Enters shadow 03:58:35 11° 194° (SSW) 1,901 5.3 -16.6°
